GEFSGL_con_probscp_222.txt.gz
Probability
28 28 25 22 19 16 13 9 6 5 4 4 5 5 6 7 10 10 8 6 5 3 2 1 0 0 0 0 0 0 0 0 0 0 0 0 0 0 0 0 0 0 0
26 27 26 23 20 17 13 10 7 6 5 5 5 5 5 7 10 11 8 6 5 2 1 0 0 0 0 0 0 0 0 1 1 1 1 0 0 0 0 0 0 0 0
28 28 28 26 23 18 13 10 8 7 6 6 6 6 6 7 10 11 9 6 4 1 0 0 0 0 0 0 0 1 2 2 2 2 2 1 0 0 0 0 0 0 0
31 30 29 28 24 18 14 12 10 9 8 7 8 8 7 7 8 9 9 6 4 2 1 1 1 1 1 0 1 2 3 3 3 3 3 2 1 0 0 0 0 0 0
31 30 28 26 23 19 16 14 14 12 9 8 8 8 8 7 8 9 9 6 5 4 3 2 2 2 2 1 1 3 4 3 3 3 3 2 1 0 0 0 0 0 0
30 28 25 23 22 22 20 18 15 13 10 9 9 9 9 8 8 9 9 8 6 5 4 4 3 3 3 3 3 3 3 3 3 2 1 1 0 0 0 0 0 0 0
27 25 23 22 22 23 22 19 15 12 12 11 10 10 10 9 9 8 8 8 7 7 6 5 3 2 3 3 3 3 3 2 1 1 0 0 0 0 0 0 0 0 0
25 24 23 23 22 22 22 19 14 12 12 11 10 10 10 9 8 7 6 7 7 7 6 6 5 4 3 3 3 2 2 1 0 0 0 0 0 0 0 0 1 1 1
25 25 24 23 22 21 20 16 11 10 10 9 9 9 9 8 7 6 6 7 7 6 5 5 6 5 4 2 1 1 1 0 1 1 0 0 0 0 0 1 2 2 2
26 25 24 22 20 19 17 12 8 7 7 7 7 8 7 7 7 6 6 7 7 5 4 4 4 4 3 1 0 0 0 1 2 2 1 1 1 1 0 1 2 3 3
24 24 22 20 18 15 13 9 6 6 6 6 6 5 6 6 7 6 5 5 6 6 5 4 4 3 2 1 0 0 0 2 3 3 2 2 2 1 0 0 1 2 2
22 21 20 17 14 11 9 7 6 5 6 6 6 4 4 6 6 4 3 3 5 6 6 6 5 4 3 2 1 0 0 1 2 2 1 1 1 1 0 0 0 1 1
21 20 18 14 9 6 6 6 6 6 6 6 6 4 4 5 4 3 1 1 2 4 5 5 4 3 2 2 1 0 0 0 1 1 0 0 0 0 0 0 0 0 0
22 19 15 11 6 4 4 4 5 6 7 7 6 4 3 4 3 3 2 1 1 1 2 2 1 1 1 1 0 0 0 0 0 0 0 0 0 0 0 0 0 0 0
21 18 13 9 5 3 2 2 3 5 7 7 5 4 4 3 3 3 2 2 1 0 0 0 0 0 0 0 0 0 0 0 0 0 0 0 0 0 0 0 0 0 0
19 16 12 8 5 3 2 1 2 4 4 4 3 3 4 3 2 2 1 1 1 0 0 0 0 0 0 0 0 0 0 0 0 0 0 0 0 0 0 0 0 0 0
17 14 10 7 6 4 3 2 3 3 2 1 1 1 2 1 1 1 0 0 0 0 0 0 0 0 0 0 0 0 0 0 0 0 0 0 0 0 0 0 0 0 0
14 11 8 7 6 4 3 3 3 3 2 1 0 0 0 0 0 0 0 0 0 0 0 0 0 0 0 0 0 0 0 0 0 0 0 0 0 0 0 0 0 0 0
11 9 7 6 6 4 3 3 3 3 3 1 0 0 0 0 0 0 0 0 0 0 0 0 0 0 0 0 0 0 0 0 0 0 0 0 0 0 0 0 0 0 0
8 7 5 5 5 5 4 3 3 3 3 2 1 0 0 0 0 0 0 0 0 0 0 0 0 0 0 0 0 0 0 0 0 0 0 0 0 0 0 0 0 0 0
5 5 4 4 4 4 3 3 3 3 3 3 2 1 0 0 0 0 0 0 0 0 0 0 0 0 0 0 0 0 0 0 0 0 0 0 0 0 0 0 0 0 0
4 3 3 3 3 3 3 3 3 3 3 3 2 1 0 0 0 0 0 0 0 0 0 0 0 0 0 0 0 0 0 0 0 0 0 0 0 0 0 0 0 0 0
5 4 3 3 3 3 3 3 3 3 3 3 2 1 0 0 0 0 0 0 0 0 0 0 0 0 0 0 0 0 0 0 0 0 0 0 0 0 0 0 0 0 0
6 5 4 4 3 3 3 3 3 3 3 3 1 0 0 0 0 0 0 0 0 0 0 0 0 0 0 0 0 0 0 0 0 0 0 0 0 0 0 0 0 0 0
6 6 6 5 4 4 3 3 3 3 3 2 1 0 0 0 0 0 0 0 0 0 0 0 0 0 0 0 0 0 0 0 0 0 0 0 0 0 0 0 0 0 0
6 6 6 6 6 5 4 3 3 3 3 2 1 0 0 0 0 0 0 0 0 0 0 0 0 0 0 0 0 0 0 0 0 0 0 0 0 0 0 0 0 0 0

GEFSGL_con_probscp_228.txt.gz
Probability
6 5 4 5 7 9 10 9 6 2 1 2 3 4 3 3 3 3 3 3 3 3 1 1 1 1 0 0 0 0 0 0 0 0 0 0 0 0 0 0 0 0 0
9 7 6 7 9 10 9 8 6 3 2 3 4 4 4 4 3 4 4 4 4 3 2 1 1 1 1 1 0 0 0 0 0 0 0 0 0 0 0 0 0 0 0
12 10 8 9 11 11 9 7 5 4 3 3 4 5 5 4 4 5 5 6 5 4 2 1 1 2 2 2 1 0 0 0 0 0 0 0 0 0 0 0 0 0 0
15 13 11 11 12 12 10 7 5 4 3 3 3 4 4 4 3 4 5 5 5 3 1 0 1 2 3 3 2 1 1 0 0 0 0 0 1 1 1 0 0 0 0
18 17 15 13 12 11 8 6 4 5 5 4 4 3 3 3 3 4 4 5 5 3 2 2 2 3 3 3 2 2 2 1 1 2 1 0 1 2 1 0 0 0 0
22 20 17 16 15 12 8 5 5 7 7 7 6 5 4 4 4 4 5 7 7 6 5 5 5 5 4 3 2 1 2 2 2 3 2 1 1 2 2 0 0 0 0
24 22 19 19 18 14 10 7 6 8 10 10 9 8 7 6 6 5 5 7 8 7 6 6 6 6 6 5 3 2 1 1 1 2 3 3 3 3 2 1 0 0 0
25 22 20 20 19 17 13 10 9 9 11 12 11 10 9 9 7 5 4 6 8 7 7 6 6 6 6 6 5 4 3 2 1 1 2 3 3 3 3 2 1 1 1
21 19 18 19 19 18 15 12 10 10 10 11 10 9 9 8 6 3 3 5 7 8 7 6 6 6 6 5 6 6 5 4 2 1 2 2 1 1 2 3 3 2 2
15 15 15 16 17 17 14 12 10 9 9 8 8 7 7 6 4 2 2 4 6 6 6 6 6 6 5 4 5 6 6 5 3 2 2 2 1 1 2 3 3 3 3
14 14 15 15 15 14 13 11 9 8 7 7 6 6 6 5 3 1 2 3 4 4 5 6 6 4 3 2 3 5 5 4 3 3 3 3 2 2 2 2 2 2 2
16 16 15 15 14 13 12 10 7 5 5 6 6 5 4 3 1 1 1 1 1 2 4 4 5 3 1 0 1 3 3 2 2 3 3 3 2 2 1 1 1 1 1
16 15 14 14 14 13 11 8 4 3 3 4 4 3 2 1 1 2 1 1 0 1 2 3 3 2 1 0 0 1 1 0 1 3 3 1 1 1 0 0 0 0 0
14 14 13 13 13 12 9 6 3 2 3 3 3 2 1 1 2 2 2 2 1 1 1 1 1 1 0 0 0 0 0 0 1 2 2 1 0 0 0 0 0 0 0
14 14 14 14 13 10 7 4 3 2 3 3 2 2 1 1 1 1 1 2 2 1 1 1 1 0 0 0 0 0 0 0 0 1 1 0 0 0 0 0 0 0 0
15 15 15 15 13 10 6 3 2 1 2 1 1 1 1 1 0 0 0 1 1 1 2 2 2 1 0 0 0 0 0 0 0 0 0 0 0 0 0 0 0 0 0
14 14 14 14 13 10 7 4 3 2 1 0 0 0 0 1 0 0 0 0 0 0 1 3 3 2 0 0 0 0 0 0 0 0 0 0 0 0 0 0 0 0 0
13 12 12 13 13 10 7 5 5 4 2 1 0 0 0 0 0 0 0 0 0 0 1 2 2 1 0 0 0 0 0 0 0 0 0 0 0 0 0 0 0 0 0
12 11 10 11 11 8 6 5 5 4 3 2 1 0 0 0 0 0 0 1 1 1 0 1 1 0 0 0 0 0 0 0 0 0 0 0 0 0 0 0 0 0 0
12 10 8 8 7 5 4 5 4 3 3 3 2 1 1 1 1 0 0 1 2 1 0 0 0 0 0 0 0 0 0 0 0 0 0 0 0 0 0 0 0 0 0
11 8 6 5 5 4 3 4 3 3 3 3 3 2 2 2 2 1 0 0 1 1 0 0 0 0 0 0 0 0 0 0 0 0 0 0 0 0 0 0 0 0 0
10 8 5 4 4 3 3 3 3 3 3 3 3 3 2 3 3 2 1 0 0 0 0 0 0 0 0 0 0 0 0 0 0 0 0 0 0 0 0 0 0 0 0
7 6 4 4 3 3 3 3 3 3 3 3 3 3 2 3 3 3 2 1 0 0 0 0 0 0 0 0 0 0 0 0 0 0 0 0 0 0 0 0 0 0 0
5 4 3 3 3 3 3 3 3 3 3 3 3 3 3 3 3 3 3 2 1 0 0 0 0 0 0 0 0 0 0 0 0 0 0 0 0 0 0 0 0 0 0
4 3 3 3 4 4 3 3 3 3 3 3 3 3 3 3 3 3 2 1 1 0 0 0 0 0 0 0 0 0 0 0 0 0 0 0 0 0 0 0 0 0 0
3 3 3 4 5 5 4 3 3 3 3 3 3 3 3 3 3 3 1 1 1 0 0 0 0 0 0 0 0 0 0 0 0 0 0 0 0 0 0 0 0 0 0

GEFSGL_con_probscp_234.txt.gz
Probability
26 24 20 18 19 22 21 18 15 13 10 7 5 4 3 4 5 5 2 1 1 2 3 3 4 6 10 8 4 3 3 2 2 4 4 2 1 1 3 6 7 4 1
27 25 22 20 20 21 20 17 15 11 8 6 5 4 3 3 4 4 3 2 2 3 3 4 4 7 8 7 4 3 3 3 3 4 4 2 0 0 2 4 5 3 2
29 27 24 21 19 18 16 14 12 9 6 6 6 5 3 2 3 3 3 2 2 3 5 6 7 7 8 7 6 4 4 4 5 5 5 3 1 1 1 2 3 3 2
28 27 24 19 17 15 14 13 11 10 8 7 6 4 2 2 3 3 3 3 3 4 6 8 9 9 9 9 8 6 6 6 6 6 6 5 4 3 2 1 1 2 2
23 24 22 19 18 16 14 13 13 13 12 10 8 6 5 4 5 5 5 5 5 6 7 9 9 8 8 8 8 7 6 6 6 6 6 6 5 4 3 2 1 2 2
22 22 22 21 22 20 17 16 16 16 15 12 10 9 8 8 8 6 6 7 8 8 8 9 9 7 6 7 7 6 6 6 6 7 7 6 6 5 4 4 3 3 3
27 26 25 25 24 23 22 22 21 19 17 14 13 11 10 11 9 5 5 8 10 10 10 10 9 8 7 6 6 5 5 5 6 7 7 6 6 6 6 5 4 3 3
30 29 28 26 25 24 24 24 23 21 19 16 14 13 12 11 9 4 4 9 12 12 11 10 10 9 7 6 6 6 6 6 6 7 7 6 6 6 6 6 5 4 3
31 30 28 25 23 23 23 23 23 22 21 17 15 14 14 12 9 4 4 9 12 11 10 9 9 8 5 4 5 7 7 7 6 6 6 6 6 6 6 6 6 5 4
32 30 27 24 22 21 23 24 23 22 21 18 15 15 15 13 8 4 4 8 11 9 7 6 6 4 3 3 4 6 7 6 6 6 5 5 5 5 4 5 6 5 5
34 32 27 23 21 21 24 24 23 21 20 19 16 16 16 12 8 4 3 6 7 6 5 4 3 3 1 1 2 4 4 4 4 5 6 6 5 4 3 4 4 5 5
35 34 30 25 22 23 24 23 21 19 19 17 16 15 14 11 6 3 2 2 3 4 4 3 3 2 1 0 1 1 1 2 3 4 6 6 6 4 3 3 3 4 4
36 36 34 29 26 25 24 22 21 18 16 14 12 11 11 9 4 1 0 0 1 2 2 2 1 1 0 0 0 0 0 2 3 4 5 6 5 5 3 3 2 2 2
36 37 35 30 28 26 24 21 19 17 15 13 10 9 9 7 4 2 1 1 1 1 1 1 0 1 1 1 1 1 1 1 2 3 4 4 4 4 3 1 1 1 1
34 34 31 27 25 24 22 19 16 14 13 11 9 7 7 6 4 3 2 2 2 2 1 0 0 1 2 2 3 3 2 1 1 1 2 2 2 3 2 1 0 0 0
31 30 27 24 22 20 18 16 12 10 7 6 5 5 5 4 2 1 1 2 2 1 1 0 0 2 3 3 4 5 3 1 1 0 1 1 1 1 2 1 0 0 0
27 25 22 21 20 17 16 13 10 7 5 3 2 2 2 2 0 0 0 1 1 0 0 0 1 2 3 4 5 5 3 2 2 1 0 0 0 0 1 1 0 0 0
23 20 19 20 19 17 15 12 10 9 7 5 2 0 0 0 0 0 0 0 0 0 0 0 1 2 4 4 4 4 3 2 2 2 0 0 0 0 0 0 0 0 0
20 18 19 20 19 17 15 12 10 10 10 8 4 1 1 0 0 0 0 1 1 1 1 0 1 3 3 4 3 3 3 3 3 2 1 0 0 0 0 0 0 0 0
20 17 17 20 20 17 15 13 12 11 11 10 6 3 2 1 1 1 1 1 2 3 2 2 2 3 3 3 3 2 2 3 3 3 2 1 0 0 0 0 0 0 0
20 17 16 19 20 17 15 14 13 12 12 10 8 4 3 3 2 2 2 3 3 3 3 3 3 3 3 3 2 1 2 3 3 3 2 1 0 0 0 0 0 0 0
20 19 18 18 18 16 13 13 13 12 12 10 7 4 3 3 3 3 3 3 3 3 3 3 3 3 3 3 2 2 3 3 3 3 2 1 0 0 0 0 0 0 0
18 18 17 16 16 14 12 12 12 12 11 9 6 4 3 3 3 3 3 3 3 3 3 3 3 3 3 3 3 3 3 3 3 3 1 0 0 0 0 0 0 0 0
15 15 14 13 14 14 12 11 11 11 10 8 6 4 3 3 3 3 3 3 3 3 3 3 3 3 3 3 3 3 3 2 2 2 1 0 0 0 0 0 0 0 0
14 14 13 13 14 14 13 11 9 9 8 7 6 4 3 3 3 3 3 3 3 3 3 3 3 3 3 3 3 2 1 1 1 1 1 0 0 0 0 0 0 0 0
13 13 13 13 13 13 12 10 8 7 6 5 5 4 3 3 3 3 3 3 3 3 3 3 3 3 3 3 3 1 0 0 0 0 1 0 0 0 0 0 0 0 0

GEFSGL_con_probscp_240.txt.gz
Probability
53 53 52 48 44 40 35 29 24 23 24 26 24 16 10 9 9 8 6 6 6 6 6 6 7 9 10 9 8 10 12 11 9 9 9 7 6 5 4 3 3 3 3
56 55 53 50 47 42 35 28 24 24 25 27 24 17 12 10 9 8 6 6 6 7 7 8 9 11 12 12 12 13 13 11 8 8 8 7 6 5 4 3 3 3 3
57 57 55 53 51 45 38 31 28 28 28 29 25 19 14 12 10 9 8 7 8 9 9 10 11 13 15 15 15 15 14 12 9 7 7 7 7 6 5 4 3 3 3
55 57 58 57 54 46 39 34 32 32 32 31 28 24 18 14 13 13 13 12 13 13 12 11 13 15 15 15 14 15 14 12 10 8 6 6 6 6 6 5 4 3 3
55 57 58 57 53 46 40 36 35 35 36 35 31 27 22 17 14 15 16 16 17 17 15 14 13 13 13 11 11 11 11 11 9 7 6 6 6 6 6 6 5 4 4
56 56 55 54 49 44 39 37 37 38 38 36 32 28 24 18 12 11 13 14 17 19 18 15 13 11 10 9 7 6 7 7 6 6 6 6 6 6 6 6 6 6 6
57 55 53 50 46 41 38 36 36 37 38 36 32 29 26 19 11 7 7 11 15 18 19 16 11 9 9 8 5 3 2 2 3 4 6 6 6 6 6 6 6 6 6
55 54 52 49 45 41 38 37 36 36 37 37 34 32 30 22 11 6 6 11 16 18 18 15 10 7 7 6 5 3 2 1 1 2 4 5 5 4 4 4 4 4 4
52 53 52 49 46 42 41 41 39 37 37 37 36 35 34 25 13 6 7 13 18 17 14 12 10 6 4 4 4 5 4 3 2 1 1 2 2 1 1 2 2 3 3
55 54 53 51 48 45 44 45 43 40 38 37 36 36 33 25 14 7 7 13 17 14 12 10 8 4 2 1 3 6 6 4 3 2 1 0 1 1 1 1 2 2 2
61 59 56 53 50 48 48 50 47 44 41 38 37 34 31 24 15 8 6 11 15 14 11 9 6 2 0 0 2 4 5 4 3 3 2 2 2 2 2 2 2 2 2
68 64 60 56 51 50 52 52 49 46 42 38 35 33 30 25 17 9 4 5 10 13 10 6 3 1 0 0 0 1 2 3 4 4 3 3 3 3 3 3 3 3 2
70 66 60 56 53 54 53 49 45 43 40 36 33 30 28 26 19 9 2 1 4 7 6 3 1 0 0 0 0 0 1 3 5 5 4 3 3 3 3 3 3 3 2
67 63 56 51 50 53 51 45 40 37 35 34 31 28 27 26 20 10 4 2 2 3 2 2 1 0 0 0 1 1 2 4 6 6 4 3 2 3 3 3 3 2 1
61 57 51 47 46 47 45 40 34 29 27 26 26 25 23 21 14 7 5 4 3 2 2 2 2 1 1 1 2 3 4 5 6 5 4 3 2 2 2 3 3 2 1
54 51 46 43 42 41 39 33 25 19 16 16 17 16 14 11 7 3 2 3 2 1 1 3 3 3 2 3 3 4 5 6 6 6 5 4 2 1 1 1 2 2 1
49 46 41 37 35 34 33 31 23 16 11 10 9 7 6 4 2 0 0 1 1 0 1 3 3 4 3 3 3 4 5 5 6 6 5 4 2 1 0 0 1 1 1
46 43 39 34 31 29 29 29 25 20 16 12 8 4 2 2 1 0 0 1 1 1 2 3 4 4 4 3 4 4 5 5 5 4 4 3 2 1 0 0 0 0 1
41 39 35 33 30 27 26 26 25 23 20 17 12 7 3 1 1 1 1 2 2 3 3 3 4 4 4 3 3 4 4 4 4 3 3 3 3 1 0 0 0 0 0
36 32 29 29 27 25 25 26 25 25 23 20 17 12 6 3 3 2 2 3 3 3 3 3 4 4 4 3 3 3 3 3 3 3 3 3 3 2 1 0 0 0 0
30 28 26 27 25 24 26 27 26 26 25 22 18 13 7 4 5 5 4 3 3 3 3 3 3 4 3 3 3 3 3 3 3 3 3 3 3 3 2 1 0 0 0
29 28 29 29 27 25 25 25 24 24 24 21 18 13 8 6 7 7 6 4 4 3 3 3 3 3 3 3 3 3 3 3 3 3 3 3 3 3 3 2 1 0 0
29 29 30 30 27 24 23 22 20 20 21 19 17 13 9 8 9 8 7 6 5 4 3 3 3 3 3 3 3 3 3 3 3 3 3 3 3 3 3 3 1 0 0
29 29 29 28 25 22 21 21 20 19 18 17 15 13 10 9 9 9 7 6 5 4 3 3 3 3 3 3 3 3 3 3 3 3 3 3 3 3 3 3 2 1 0
29 28 27 24 22 22 21 21 20 19 17 16 15 14 12 10 10 10 8 6 5 4 4 4 3 3 3 3 3 3 3 3 3 3 3 3 3 3 3 3 2 1 0
28 27 25 22 21 22 22 21 19 19 17 15 16 16 13 12 12 10 9 7 5 4 5 5 4 3 3 3 3 3 3 2 2 3 3 3 3 3 3 3 1 0 0